Regional Weather Roundup
Issued by NWS Kansas City/Pleasant Hill, MO

Home | Current Version | Previous Version | Text Only | Print | Product List | Glossary On
Versions: 1 2 3 4 5 6 7 8 9 10 11 12 13 14 15 16 17 18 19 20 21 22 23 24 25 26 27 28 29 30 31 32 33 34 35 36 37 38 39 40 41 42 43 44 45 46 47 48 49 50
000
ASUS43 KEAX 062110
RWREAX

WEATHER ROUNDUP FOR EASTERN KANSAS AND NORTHWEST MISSOURI
NATIONAL WEATHER SERVICE KANSAS CITY/PLEASANT HILL MO
400 PM CDT WED MAY 06 2015

KSZ040-057-103>105-MOZ028-029-037-043-062200-
...KANSAS CITY METROPOLITAN AREA...

CITY           SKY/WX    TMP DP  RH WIND       PRES   REMARKS
K.C. INTL      TSTM      66  58  75 S21G29    29.93S
K.C. DOWNTOWN  CLOUDY    65  59  81 S16G25    29.95R
LEES SUMMIT    LGT RAIN  65  62  90 SW8       29.97S FOG
OLATHE - IXD   CLOUDY    67  61  81 SE13      29.93F
OLATHE - OJC   CLOUDY    64  60  87 SE8       29.93F
LAWRENCE       CLOUDY    68  60  75 SE10      29.90F

$$

MOZ001>008-011>017-020>025-030>033-038>040-044>046-053-054-062200-
...NORTHERN AND CENTRAL MISSOURI...

CITY           SKY/WX    TMP DP  RH WIND       PRES   REMARKS
ST. JOSEPH     CLOUDY    73  60  63 S25G32    29.89F
MOSBY          LGT RAIN  66  59  77 S10G25    29.96S
WARRENSBURG    CLOUDY    70  59  68 S9G16     29.97F
WHITEMAN AFB   MOSUNNY   76  62  61 S15G26    29.96F
CLINTON        MOSUNNY   77  63  61 S21G29    29.97F
SEDALIA        CLOUDY    77  63  61 S14       29.98F
WARSAW         NOT AVBL
MARSHALL       CLOUDY    75  64  69 S13       29.98F
CHILLICOTHE      N/A     73  61  65 S13G23    29.97F
KIRKSVILLE     PTSUNNY   72  59  63 SW18G29   30.00F

$$

MOZ041-047>049-056>058-063>065-088>090-097-062200-
...EASTERN AND SOUTHERN MISSOURI...

CITY           SKY/WX    TMP DP  RH WIND       PRES   REMARKS
ST. LOUIS INTL MOSUNNY   87  51  28 SE16G25   30.04F
SPIRIT OF STL  MOSUNNY   84  52  33 S10G20    30.01F
COLUMBIA       CLOUDY    78  58  49 S12       30.00F
JEFFERSON CITY PTSUNNY   80  57  45 SE9       29.98F
MEXICO         HVY RAIN  73  68  83 S12       30.03
HANNIBAL       CLOUDY    77  52  41 S9        30.02F
ROLLA          MOSUNNY   79  52  38 SE16G24   30.01F
LEBANON        CLOUDY    81  50  34 S20G29    30.01F
OSAGE BEACH    CLOUDY    81  55  41 S14G21    30.00F
SPRINGFIELD    MOSUNNY   77  55  46 S22G30    29.99F
BRANSON        PTSUNNY   77  55  47 SE13G24   30.03F
NEVADA         SUNNY     77  59  53 S18G26    29.95F
JOPLIN         MOSUNNY   80  55  42 SE25G36   29.92F
WEST PLAINS    PTSUNNY   79  52  38 SE15G22   30.06F

$$

IAZ060-094-KSZ022-034>040-054-083-096-NEZ052-066-093-062200-
...KANSAS...SOUTHEAST NEBRASKA AND IOWA...

CITY           SKY/WX    TMP DP  RH WIND       PRES   REMARKS
TOPEKA         CLOUDY    70  60  70 S20G33    29.87F
MANHATTAN      CLOUDY    72  64  76 S25G41    29.78F
EMPORIA        CLOUDY    69  63  81 SE22G31   29.84F
CHANUTE        CLOUDY    75  64  68 S20G25    29.89F
WICHITA        PTSUNNY   74  66  76 SE26G37   29.75F
OMAHA          CLOUDY    71  59  65 S18G30    29.80F
LINCOLN        CLOUDY    70  61  73 S22G36    29.76F
FALLS CITY     CLOUDY    72  61  68 SE26G38   29.83F
LAMONI         CLOUDY    70  59  68 S16G25    29.94F
DES MOINES     LGT RAIN  74  57  55 S20G31    29.92S

$$



USA.gov is the U.S. government's official web portal to all federal, state and local government web resources and services.